Miscellaneous Local Product
Issued by NWS Hastings, NE

Home | Current Version | Previous Version | Graphics & Text | Print | Product List | Glossary On
Versions: 1 2 3 4 5 6 7 8 9 10 11 12 13 14 15 16 17 18 19 20 21 22 23 24 25 26 27 28 29 30 31 32 33 34 35 36 37 38 39 40 41 42 43 44 45 46 47 48 49 50
000
AXUS43 KGID 212110
MISGRI

GID CWA HOURLY WEATHER ROUNDUP
NATIONAL WEATHER SERVICE HASTINGS NE
400 PM CDT MON JUL 21 2014

NOTE: "FAIR" INDICATES FEW OR NO CLOUDS BELOW 12,000 FEET WITH NO
SIGNIFICANT WEATHER AND/OR OBSTRUCTIONS TO VISIBILITY.

...SOUTH CENTRAL NEBRASKA...

CITY           SKY/WX    TMP DP  RH WIND       PRES   REMARKS
GRAND ISLAND   NOT AVBL
HASTINGS       NOT AVBL
KEARNEY        PTSUNNY   99  72  41 S10       29.90S HX 107
ORD            NOT AVBL
YORK           MOSUNNY   97  81  59 S12       29.87S HX 118
AURORA         MOSUNNY   96  76  53 SW10      29.87S HX 109
LEXINGTON      PTSUNNY  102  60  24 SW5       29.91S HX 103
HOLDREGE       PTSUNNY  100  62  28 SW9G16    29.91F HX 102
HEBRON         MOSUNNY  100  70  37 SW12G18   29.87S HX 107

...NEBRASKA PANHANDLE...

CITY           SKY/WX    TMP DP  RH WIND       PRES   REMARKS
CHADRON        NOT AVBL
ALLIANCE       NOT AVBL
SCOTTSBLUFF    NOT AVBL
SIDNEY         NOT AVBL

...WESTERN AND NORTH CENTRAL NEBRASKA...

CITY           SKY/WX    TMP DP  RH WIND       PRES   REMARKS
VALENTINE      NOT AVBL
AINSWORTH      MOSUNNY  101  51  18 W12G18    29.85F HX  98
ONEILL         PTSUNNY  102  54  20 S13       29.82S HX 100
BROKEN BOW     NOT AVBL
NORTH PLATTE   NOT AVBL
MCCOOK         NOT AVBL

...EASTERN NEBRASKA...

CITY           SKY/WX    TMP DP  RH WIND       PRES   REMARKS
NORFOLK        NOT AVBL
COLUMBUS       PTSUNNY   93  73  52 SW12G18   29.85S HX 102
ALBION         PTSUNNY   93  75  56 S8        29.86R HX 104
OMAHA EPPLEY   NOT AVBL
MILLARD        SUNNY     94  75  54 S12G21    29.85S HX 106
LINCOLN        NOT AVBL
NEBRASKA CITY  SUNNY     94  73  50 S15       29.88S HX 103
BEATRICE       SUNNY     95  75  51 S15G23    29.88S HX 106
FALLS CITY     NOT AVBL

...NORTHERN KANSAS...

CITY           SKY/WX    TMP DP  RH WIND       PRES   REMARKS
GOODLAND       NOT AVBL
HILL CITY      NOT AVBL
NORTON         CLEAR    106  45  12 S10       29.90F HX 101
PHILLIPSBURG   SUNNY    104  61  24 S17G24    29.89F HX 105
SMITH CENTER   SUNNY    106  59  21 S20       29.90S HX 106
HAYS           SUNNY     99  70  39 S15G24    29.93S HX 105
RUSSELL        NOT AVBL
CONCORDIA      NOT AVBL



USA.gov is the U.S. government's official web portal to all federal, state and local government web resources and services.